Stigler, OK

9:32 PM CST on December 15, 2017 (GMT -0600)
Stigler

Weather History for KGZL - March, 2013

Change the Weather History Date:

Tuesday, March 5, 2013

  Actual Average (KJSV) Record (KJSV)
Temperature  
Mean Temperature 42 °F -  
Max Temperature 48 °F 61 °F 85 °F (1991)
Min Temperature 35 °F 33 °F 12 °F (1960)
Degree Days  
Heating Degree Days 24    
Moisture  
Dew Point 21 °F    
Average Humidity 45    
Maximum Humidity 81    
Minimum Humidity 25    
Precipitation  
Precipitation 0.00 in - - ()
Sea Level Pressure  
Sea Level Pressure 30.22 in    
Wind  
Wind Speed 19 mph (NNW)    
Max Wind Speed 29 mph    
Max Gust Speed 45 mph    
Visibility 10 miles    
Events      
Averages and records for this station are not official NWS values.
T = Trace of Precipitation, MM = Missing Value Source: NWS Daily Summary

Daily Weather History Graph

Daily Weather History Graph

Search for Another Location

Airport or City:

Trip Planner

Search our weather history database for the weather conditions in past years. The results will help you decide how hot, cold, wet, or windy it might be!

Date:

Astronomy

Mar. 05, 2013 Rise Set
Actual Time 6:44 AM CST 6:19 PM CST
Civil Twilight 6:18 AM CST 6:45 PM CST
Nautical Twilight 5:49 AM CST 7:14 PM CST
Astronomical Twilight 5:20 AM CST 7:43 PM CST
Moon 1:47 AM CST (3/5) 12:09 PM CST (3/5)
Length of Visible Light 12h 26m
Length of Day
11h 35m
Last Quarter, 40% of the Moon is Illuminated
Mar 5
Last Quarter
Mar 11
New
Mar 19
First Quarter
Mar 27
Full
Apr 2
Last Quarter

Hourly Weather History & Observations

Time (CST) Temp. Windchill Dew Point Humidity Pressure Visibility Wind Dir Wind Speed Gust Speed Precip Events Conditions
12:15 AM 48.2 °F - 32.0 °F 54% 29.94 in 10.0 mi NNW 20.7 mph 26.5 mph N/A   Overcast
12:35 AM 48.2 °F - 32.0 °F 54% 29.93 in 10.0 mi NNW 20.7 mph 27.6 mph N/A   Mostly Cloudy
12:55 AM 46.4 °F 38.3 °F 32.0 °F 57% 29.93 in 10.0 mi NNW 23.0 mph 31.1 mph N/A   Mostly Cloudy
1:15 AM 46.4 °F 39.0 °F 32.0 °F 57% 29.96 in 10.0 mi NNW 19.6 mph 31.1 mph N/A   Mostly Cloudy
1:35 AM 46.4 °F 39.5 °F 32.0 °F 57% 29.97 in 10.0 mi NNW 17.3 mph 26.5 mph N/A   Overcast
1:55 AM 46.4 °F 38.1 °F 32.0 °F 57% 29.98 in 10.0 mi NNW 24.2 mph 31.1 mph N/A   Mostly Cloudy
2:15 AM 44.6 °F 35.7 °F 32.0 °F 61% 30.00 in 10.0 mi North 24.2 mph 35.7 mph N/A   Overcast
2:35 AM 44.6 °F 35.3 °F 32.0 °F 61% 30.01 in 10.0 mi North 26.5 mph 44.9 mph N/A   Overcast
3:15 AM 41.0 °F 30.9 °F 32.0 °F 70% 30.06 in 10.0 mi NNW 24.2 mph 39.1 mph N/A   Overcast
3:35 AM 41.0 °F 31.4 °F 32.0 °F 70% 30.07 in 10.0 mi NNW 21.9 mph 33.4 mph N/A   Overcast
3:55 AM 41.0 °F 32.2 °F 32.0 °F 70% 30.07 in 10.0 mi NNW 18.4 mph 33.4 mph N/A   Overcast
4:15 AM 41.0 °F 32.5 °F 32.0 °F 70% 30.10 in 10.0 mi NNW 17.3 mph 28.8 mph N/A   Overcast
4:35 AM 39.2 °F 30.2 °F 32.0 °F 75% 30.10 in 10.0 mi NNW 17.3 mph 25.3 mph N/A   Overcast
4:55 AM 39.2 °F 29.6 °F 32.0 °F 75% 30.11 in 10.0 mi NNW 19.6 mph 24.2 mph N/A   Overcast
5:15 AM 39.2 °F 31.2 °F 32.0 °F 75% 30.12 in 10.0 mi NNW 13.8 mph 21.9 mph N/A   Overcast
5:35 AM 39.2 °F 30.5 °F 33.8 °F 81% 30.13 in 10.0 mi North 16.1 mph 21.9 mph N/A   Overcast
5:55 AM 39.2 °F 30.2 °F 33.8 °F 81% 30.16 in 10.0 mi NNW 17.3 mph 21.9 mph N/A   Overcast
6:15 AM 39.2 °F 30.8 °F 32.0 °F 75% 30.16 in 10.0 mi NNW 15.0 mph 24.2 mph N/A   Overcast
6:35 AM 41.0 °F 32.8 °F 32.0 °F 70% 30.17 in 10.0 mi NW 16.1 mph 21.9 mph N/A   Overcast
6:55 AM 39.2 °F 30.8 °F 32.0 °F 75% 30.18 in 10.0 mi NNW 15.0 mph 24.2 mph N/A   Overcast
7:15 AM 39.2 °F 30.5 °F 32.0 °F 75% 30.19 in 10.0 mi NNW 16.1 mph 25.3 mph N/A   Overcast
7:35 AM 39.2 °F 29.3 °F 26.6 °F 61% 30.20 in 10.0 mi NNW 20.7 mph 32.2 mph N/A   Overcast
7:55 AM 39.2 °F 29.6 °F 26.6 °F 61% 30.23 in 10.0 mi NW 19.6 mph 29.9 mph N/A   Overcast
8:15 AM 39.2 °F 29.0 °F 26.6 °F 61% 30.23 in 10.0 mi NW 21.9 mph 29.9 mph N/A   Mostly Cloudy
8:35 AM 39.2 °F 29.8 °F 23.0 °F 52% 30.25 in 10.0 mi NW 18.4 mph 29.9 mph N/A   Partly Cloudy
8:55 AM 41.0 °F 31.1 °F 17.6 °F 39% 30.27 in 10.0 mi NNW 23.0 mph 28.8 mph N/A   Clear
9:15 AM 41.0 °F 31.1 °F 15.8 °F 36% 30.28 in 10.0 mi NNW 23.0 mph 32.2 mph N/A   Clear
9:35 AM 39.2 °F 27.6 °F 10.4 °F 31% 30.28 in 10.0 mi NNW 28.8 mph 40.3 mph N/A   Clear
9:55 AM 41.0 °F 30.7 °F 12.2 °F 31% 30.29 in 10.0 mi NNW 25.3 mph 33.4 mph N/A   Clear
10:15 AM 41.0 °F 30.7 °F 12.2 °F 31% 30.29 in 10.0 mi NNW 25.3 mph 32.2 mph N/A   Clear
10:35 AM 41.0 °F 31.6 °F 14.0 °F 33% 30.29 in 10.0 mi NNW 20.7 mph 32.2 mph N/A   Clear
10:55 AM 41.0 °F 30.7 °F 10.4 °F 29% 30.29 in 10.0 mi NNW 25.3 mph 35.7 mph N/A   Clear
11:15 AM 42.8 °F 33.3 °F 10.4 °F 27% 30.29 in 10.0 mi North 24.2 mph 34.5 mph N/A   Clear
11:35 AM 44.6 °F 36.1 °F 12.2 °F 27% 30.29 in 10.0 mi North 21.9 mph 29.9 mph N/A   Clear
11:55 AM 44.6 °F 35.7 °F 12.2 °F 27% 30.29 in 10.0 mi North 24.2 mph 33.4 mph N/A   Clear
12:15 PM 44.6 °F 35.7 °F 12.2 °F 27% 30.29 in 10.0 mi NW 24.2 mph 31.1 mph N/A   Clear
12:35 PM 44.6 °F 36.6 °F 14.0 °F 29% 30.29 in 10.0 mi NW 19.6 mph 33.4 mph N/A   Clear
12:55 PM 46.4 °F 37.7 °F 14.0 °F 27% 30.29 in 10.0 mi NW 26.5 mph 31.1 mph N/A   Clear
1:15 PM 46.4 °F 39.2 °F 15.8 °F 29% 30.29 in 10.0 mi NW 18.4 mph 29.9 mph N/A   Clear
1:35 PM 48.2 °F - 15.8 °F 27% 30.29 in 10.0 mi NNW 20.7 mph 31.1 mph N/A   Clear
1:55 PM 46.4 °F 39.2 °F 14.0 °F 27% 30.28 in 10.0 mi WNW 18.4 mph 29.9 mph N/A   Clear
2:15 PM 48.2 °F - 14.0 °F 25% 30.28 in 10.0 mi NNW 21.9 mph 27.6 mph N/A   Clear
2:35 PM 48.2 °F - 14.0 °F 25% 30.28 in 10.0 mi NNW 16.1 mph 31.1 mph N/A   Clear
2:55 PM 48.2 °F - 14.0 °F 25% 30.27 in 10.0 mi NNW 23.0 mph 31.1 mph N/A   Clear
3:15 PM 48.2 °F - 14.0 °F 25% 30.27 in 10.0 mi NNW 19.6 mph 28.8 mph N/A   Clear
3:35 PM 48.2 °F - 14.0 °F 25% 30.27 in 10.0 mi NW 17.3 mph 26.5 mph N/A   Clear
3:55 PM 48.2 °F - 14.0 °F 25% 30.27 in 10.0 mi NNW 16.1 mph 28.8 mph N/A   Clear
4:15 PM 48.2 °F - 14.0 °F 25% 30.27 in 10.0 mi NW 18.4 mph 25.3 mph N/A   Clear
4:35 PM 48.2 °F - 14.0 °F 25% 30.27 in 10.0 mi NW 15.0 mph 27.6 mph N/A   Clear
4:55 PM 48.2 °F - 14.0 °F 25% 30.27 in 10.0 mi NNW 16.1 mph 20.7 mph N/A   Clear
5:15 PM 48.2 °F - 14.0 °F 25% 30.26 in 10.0 mi NNW 16.1 mph 21.9 mph N/A   Clear
5:35 PM 46.4 °F 40.1 °F 14.0 °F 27% 30.27 in 10.0 mi NNW 15.0 mph 20.7 mph N/A   Clear
5:55 PM 46.4 °F 40.4 °F 14.0 °F 27% 30.27 in 10.0 mi NNW 13.8 mph 24.2 mph N/A   Clear
6:15 PM 44.6 °F 38.4 °F 14.0 °F 29% 30.28 in 10.0 mi NNW 12.7 mph - N/A   Clear
6:35 PM 44.6 °F 39.7 °F 15.8 °F 31% 30.28 in 10.0 mi NW 9.2 mph - N/A   Clear
6:55 PM 42.8 °F 37.5 °F 15.8 °F 34% 30.29 in 10.0 mi NW 9.2 mph - N/A   Clear
7:15 PM 42.8 °F 37.5 °F 15.8 °F 34% 30.29 in 10.0 mi NW 9.2 mph - N/A   Clear
7:35 PM 41.0 °F 35.8 °F 17.6 °F 39% 30.29 in 10.0 mi NW 8.1 mph - N/A   Clear
7:55 PM 41.0 °F 35.8 °F 17.6 °F 39% 30.29 in 10.0 mi NW 8.1 mph - N/A   Clear
8:15 PM 39.2 °F 33.0 °F 17.6 °F 42% 30.30 in 10.0 mi NW 9.2 mph - N/A   Clear
8:35 PM 39.2 °F 33.6 °F 17.6 °F 42% 30.31 in 10.0 mi NW 8.1 mph - N/A   Clear
8:55 PM 39.2 °F 35.0 °F 19.4 °F 45% 30.32 in 10.0 mi NW 5.8 mph - N/A   Clear
9:15 PM 37.4 °F 32.1 °F 19.4 °F 48% 30.33 in 10.0 mi NW 6.9 mph - N/A   Clear
9:35 PM 37.4 °F 32.1 °F 19.4 °F 48% 30.34 in 10.0 mi NW 6.9 mph - N/A   Clear
9:55 PM 37.4 °F 32.1 °F 19.4 °F 48% 30.35 in 10.0 mi NW 6.9 mph - N/A   Clear
10:15 PM 37.4 °F 32.1 °F 19.4 °F 48% 30.35 in 10.0 mi NW 6.9 mph - N/A   Clear
10:35 PM 35.6 °F 30.7 °F 19.4 °F 52% 30.35 in 10.0 mi NW 5.8 mph - N/A   Clear
10:55 PM 35.6 °F 29.9 °F 19.4 °F 52% 30.36 in 10.0 mi NW 6.9 mph - N/A   Clear
11:15 PM 35.6 °F 30.7 °F 19.4 °F 52% 30.36 in 10.0 mi NW 5.8 mph - N/A   Clear
11:35 PM 35.6 °F 30.7 °F 19.4 °F 52% 30.36 in 10.0 mi NW 5.8 mph - N/A   Clear
11:55 PM 35.6 °F 31.7 °F 19.4 °F 52% 30.37 in 10.0 mi NW 4.6 mph - N/A   Clear